Temperature
5 5 4 4 4 4 4 3 3 3 4 4 4 4 4 4 4 4 4 5 5 5 5 5 5 5 6 6 6 6 6 6 6 6 7 7 7 7
5 4 4 4 4 3 3 3 3 2 2 3 3 3 3 3 3 4 4 4 4 4 5 5 5 5 5 5 5 5 5 5 6 6 6 6 6 6
4 4 3 3 3 3 3 2 2 2 2 2 2 3 3 2 3 3 3 3 3 4 4 4 4 4 4 4 4 5 5 5 5 5 5 5 6 6
4 3 3 3 2 2 2 2 2 2 1 1 2 2 2 2 2 2 2 3 3 3 3 3 3 4 4 4 4 4 4 4 4 5 5 5 5 5
3 3 3 2 2 2 2 1 1 1 1 1 1 1 1 1 1 1 2 2 2 3 3 3 3 3 3 3 4 4 4 4 4 4 4 4 4 4
3 2 2 2 1 1 1 1 1 1 1 0 0 0 0 0 0 0 1 1 1 2 2 2 2 3 3 3 3 3 3 3 3 3 4 4 4 4
2 2 1 1 1 1 0 0 0 0 -0 -0 -0 -0 -0 -0 -0 -0 -0 -0 0 1 1 1 2 2 2 2 2 3 3 3 3 3 3 3 3 3
1 1 1 1 0 0 0 -0 -0 -0 -1 -1 -1 -1 -1 -1 -1 -1 -1 -1 -1 -0 -0 0 1 1 1 2 2 2 2 2 2 2 2 3 3 3
1 1 0 0 -0 -0 -0 -0 -1 -1 -1 -1 -1 -1 -2 -2 -2 -1 -1 -1 -1 -1 -1 -0 0 0 1 1 1 2 1 2 2 2 2 2 2 2
0 0 -0 -0 -1 -1 -1 -1 -1 -1 -1 -2 -2 -2 -2 -2 -2 -2 -2 -2 -1 -1 -1 -1 -1 -1 0 0 1 1 1 1 1 1 2 2 2 2
-0 -0 -1 -1 -1 -1 -2 -2 -2 -1 -1 -2 -2 -2 -2 -2 -2 -2 -2 -2 -2 -2 -1 -2 -1 -1 -1 -0 0 0 0 1 1 1 1 1 1 1
-1 -1 -1 -1 -1 -2 -2 -2 -2 -2 -2 -2 -2 -2 -2 -2 -2 -2 -2 -2 -2 -2 -2 -2 -2 -2 -1 -1 -1 -0 -0 0 0 0 0 0 0 0
-1 -1 -1 -2 -2 -2 -2 -2 -2 -2 -2 -2 -2 -2 -2 -2 -2 -2 -2 -2 -3 -3 -2 -2 -2 -2 -2 -2 -1 -1 -1 -1 -1 -0 -0 -0 -0 -0
-2 -2 -2 -2 -2 -2 -2 -2 -3 -3 -3 -3 -3 -3 -3 -3 -3 -2 -2 -2 -3 -3 -2 -2 -2 -2 -2 -2 -2 -2 -1 -1 -1 -1 -1 -1 -1 -0
-2 -2 -2 -2 -3 -3 -3 -3 -3 -3 -3 -4 -3 -3 -3 -3 -3 -3 -3 -3 -3 -3 -3 -3 -3 -2 -2 -2 -2 -2 -2 -2 -2 -2 -2 -1 -1 -1
-3 -3 -3 -3 -3 -3 -3 -3 -3 -4 -4 -4 -4 -4 -4 -4 -4 -4 -4 -3 -3 -3 -3 -3 -3 -3 -3 -2 -2 -2 -2 -2 -2 -2 -2 -2 -2 -2
-3 -3 -3 -3 -3 -3 -3 -4 -4 -4 -4 -4 -4 -4 -4 -4 -4 -4 -4 -4 -4 -3 -3 -3 -3 -3 -3 -3 -3 -3 -3 -3 -3 -3 -3 -3 -2 -2
-4 -4 -4 -4 -4 -4 -4 -4 -4 -4 -4 -5 -5 -5 -5 -5 -5 -4 -4 -4 -4 -4 -4 -3 -3 -3 -3 -3 -3 -3 -3 -3 -3 -3 -3 -3 -3 -2
-4 -4 -5 -5 -5 -5 -5 -5 -5 -5 -5 -5 -5 -5 -5 -5 -5 -5 -5 -4 -4 -4 -4 -4 -4 -4 -4 -4 -4 -4 -4 -4 -4 -4 -4 -4 -3 -3
-5 -5 -5 -5 -5 -5 -5 -5 -5 -5 -5 -5 -5 -5 -5 -5 -5 -5 -5 -5 -5 -5 -4 -4 -4 -4 -4 -5 -5 -5 -4 -4 -4 -4 -4 -4 -4 -3
-5 -5 -5 -6 -6 -6 -6 -6 -6 -5 -5 -5 -6 -6 -5 -5 -5 -5 -5 -5 -5 -5 -5 -5 -5 -5 -5 -5 -5 -5 -5 -4 -4 -4 -4 -4 -5 -4
-6 -6 -6 -6 -6 -6 -6 -6 -6 -6 -6 -6 -6 -6 -6 -6 -6 -6 -6 -6 -5 -5 -5 -5 -5 -5 -5 -5 -5 -5 -5 -5 -4 -4 -4 -5 -5 -5
-6 -6 -6 -6 -6 -6 -6 -6 -6 -6 -6 -6 -6 -6 -6 -6 -6 -6 -6 -6 -6 -6 -6 -6 -6 -5 -5 -5 -5 -5 -5 -5 -5 -5 -5 -4 -5 -4
Wind_Speed
7 7 7 7 7 8 8 8 9 10 11 10 8 8 9 11 12 13 15 16 17 18 18 19 19 19 20 20 20 20 20 19 19 20 22 22 23 23
6 8 8 7 7 8 8 9 9 10 12 10 10 10 10 10 13 15 15 17 17 18 18 18 19 19 19 19 19 19 19 19 19 20 20 21 22 22
7 8 9 9 8 8 8 9 9 10 13 12 10 11 12 12 12 13 14 14 14 16 18 18 18 18 18 18 18 18 18 18 18 19 19 19 18 17
8 8 9 7 9 8 8 9 9 10 11 14 12 11 12 12 13 13 12 12 13 15 17 18 18 18 17 17 16 17 17 17 16 17 17 17 18 18
8 8 9 9 9 8 9 9 9 9 10 11 12 11 10 10 12 12 12 11 12 13 15 15 16 17 17 16 16 16 16 16 16 16 16 16 16 17
8 8 9 9 9 10 9 10 9 10 10 10 11 10 10 10 9 10 10 10 10 11 12 12 14 15 15 15 15 15 14 15 15 15 14 14 15 16
8 9 9 9 11 10 9 10 10 9 9 9 10 10 9 9 9 9 10 11 11 9 9 9 10 10 10 12 12 12 13 14 14 13 13 13 13 14
9 9 9 10 11 12 13 13 12 11 10 10 10 11 12 11 10 9 10 11 10 7 9 11 9 9 9 9 10 11 13 13 13 12 12 11 11 12
9 9 8 8 10 10 11 13 13 14 14 12 13 13 13 12 12 12 11 12 12 10 10 11 9 10 8 9 11 11 11 11 11 11 11 11 11 11
9 9 9 10 9 10 10 11 11 11 12 11 12 13 12 12 11 12 12 12 12 10 9 9 8 8 8 8 10 10 10 10 10 11 11 11 11 11
8 9 9 10 11 12 11 11 12 11 11 13 15 15 16 16 13 9 9 8 10 9 7 6 7 8 8 7 7 8 9 9 10 10 10 10 9 9
7 8 9 10 12 12 10 10 11 11 11 11 11 12 12 12 12 10 8 8 8 7 6 5 6 6 5 5 6 6 7 7 8 8 8 8 7 5
7 7 7 11 12 13 12 10 11 12 10 10 10 9 9 8 8 8 8 8 8 8 6 6 6 6 5 5 6 6 5 5 5 5 5 5 6 5
7 7 8 12 12 13 10 11 13 11 8 8 8 8 8 7 7 8 8 8 9 9 9 8 6 6 6 6 6 5 5 5 4 4 3 3 4 4
7 10 12 13 12 10 10 11 10 7 6 7 8 8 7 7 7 7 7 7 7 7 7 8 7 6 6 6 5 5 5 4 3 3 3 3 3 3
7 9 10 10 8 9 8 7 5 6 6 7 7 7 7 6 6 6 6 5 5 6 5 6 5 5 5 5 4 4 4 3 3 4 3 3 3 3
8 6 6 6 6 5 5 5 5 5 6 6 6 6 6 6 6 5 5 5 5 5 5 4 4 3 3 3 3 3 2 3 3 3 3 3 4 3
7 5 6 6 6 6 6 6 5 5 6 5 6 6 6 6 6 5 5 5 5 5 5 4 3 3 2 3 3 2 2 3 3 3 3 2 3 4
5 5 5 6 6 6 6 5 5 6 5 5 5 5 5 5 5 5 5 4 4 4 4 4 4 2 2 3 3 4 3 3 3 3 3 3 3 4
4 5 5 6 6 6 6 6 5 5 5 5 5 5 5 5 5 5 5 5 4 4 4 4 3 2 2 2 2 4 5 3 2 2 3 3 3 4
5 5 5 6 6 6 6 5 5 5 5 5 5 5 5 5 5 5 4 5 4 3 4 4 3 3 1 0 1 2 4 5 4 3 3 3 3 3
5 5 6 6 6 6 5 5 5 5 5 5 5 5 5 4 4 5 4 4 3 3 3 3 3 2 1 1 1 2 3 4 6 6 5 3 2 2
5 6 6 6 6 5 5 5 5 5 5 5 5 5 4 4 4 3 3 3 3 2 2 2 2 2 2 1 1 2 3 4 4 5 5 7 5 4
Wind_Direction
262 263 263 261 259 260 261 263 269 279 280 280 281 279 287 287 290 288 287 287 284 281 280 279 279 279 280 278 276 274 271 270 269 267 263 259 255 253
264 263 264 263 259 257 257 259 259 265 273 279 282 286 286 286 289 288 287 289 282 279 280 280 279 278 278 276 275 274 272 270 267 265 263 262 257 251
269 266 267 268 266 261 259 259 258 260 270 279 283 287 286 286 288 289 288 287 284 280 281 280 279 278 276 274 273 274 273 270 266 263 260 259 255 253
274 272 273 274 275 272 266 264 263 263 268 277 284 288 288 287 289 289 289 289 287 286 283 281 279 277 276 273 273 273 271 270 268 265 259 254 252 252
276 275 276 276 275 277 275 271 270 271 268 274 282 287 292 289 291 290 289 288 290 290 286 282 279 277 275 273 272 271 270 268 267 264 260 255 253 253
278 275 275 274 275 279 279 277 275 274 273 275 280 285 288 292 292 293 294 294 293 294 289 288 286 279 274 272 270 269 269 269 268 266 260 256 253 251
280 276 275 275 274 275 277 282 279 274 276 278 281 286 288 293 291 294 291 294 294 288 293 294 291 285 281 273 268 269 273 273 270 267 262 256 253 253
280 280 279 276 276 276 275 278 276 273 275 276 278 280 282 286 290 290 291 293 294 293 295 294 291 287 285 280 277 275 273 273 271 268 262 258 254 252
281 283 283 282 281 281 280 278 274 269 266 270 273 275 281 285 287 287 285 285 286 291 294 290 293 289 291 288 286 278 275 274 269 266 263 257 253 254
280 280 281 281 282 285 284 281 278 274 270 268 270 275 278 282 281 280 281 284 286 285 286 287 292 293 297 292 288 282 278 275 271 269 264 257 256 255
286 281 281 281 284 286 284 282 282 282 278 275 276 279 282 281 280 281 282 283 288 291 290 282 291 301 299 295 297 292 282 275 273 271 268 262 258 256
293 287 281 284 290 291 284 283 284 289 292 289 284 284 282 281 279 270 269 275 287 289 289 289 293 304 299 298 307 306 295 283 279 273 269 263 255 252
294 294 292 297 296 292 288 283 285 291 288 286 285 286 285 283 282 280 274 267 272 275 282 293 290 293 284 295 306 307 302 304 299 290 274 263 256 250
296 296 299 304 302 298 292 290 293 293 287 286 285 286 290 292 292 291 286 281 275 276 281 283 278 277 280 287 295 304 310 311 310 307 305 298 280 259
298 298 301 302 302 298 295 293 291 286 284 285 286 290 293 292 293 294 296 295 292 290 286 281 273 273 273 274 280 292 305 315 317 320 321 317 306 294
302 299 297 296 295 294 297 295 288 283 283 282 288 294 298 297 294 297 300 307 306 306 307 303 288 280 281 283 280 291 299 297 311 320 325 323 316 308
308 301 300 302 303 303 302 301 298 296 293 290 293 298 300 300 300 302 300 302 297 300 313 324 335 334 325 302 289 292 303 316 318 317 325 330 324 323
309 298 302 303 302 303 305 305 302 300 299 297 294 293 296 300 303 306 305 302 300 302 306 311 321 327 331 353 341 299 321 328 333 332 329 327 326 332
312 307 308 308 304 302 301 300 299 300 299 297 296 297 298 299 300 303 304 305 306 306 307 310 307 304 317 328 345 348 330 331 339 344 346 339 323 322
310 307 306 308 308 304 301 301 300 302 301 300 300 299 299 300 302 303 302 305 308 311 317 322 320 319 303 295 309 329 340 333 337 341 339 342 336 327
308 306 305 305 305 305 301 299 298 297 300 301 301 303 303 303 304 306 306 311 314 317 318 322 325 333 328 18 31 353 354 1 357 336 329 331 336 339
303 304 304 303 304 305 304 302 302 302 305 304 306 307 307 307 305 306 308 311 314 313 316 320 331 345 2 69 58 8 360 1 11 14 7 347 324 319
304 303 301 300 301 303 302 302 303 305 308 309 309 310 311 311 309 308 311 310 311 316 324 333 356 15 28 49 46 22 14 5 6 12 11 14 11 346
Height
1459 1457 1456 1454 1453 1452 1451 1450 1448 1443 1439 1438 1436 1434 1432 1429 1426 1424 1422 1419 1417 1415 1414 1412 1411 1409 1408 1407 1407 1406 1405 1405 1406 1406 1406 1407 1408 1409
1453 1452 1450 1449 1447 1446 1445 1443 1442 1439 1434 1432 1430 1428 1425 1423 1420 1417 1415 1412 1410 1408 1406 1404 1402 1401 1400 1399 1398 1397 1396 1396 1397 1397 1397 1398 1399 1400
1447 1446 1444 1443 1441 1440 1438 1437 1435 1433 1429 1425 1424 1421 1419 1416 1413 1410 1408 1405 1402 1400 1398 1396 1395 1393 1392 1390 1390 1389 1388 1387 1387 1388 1389 1389 1390 1391
1442 1440 1438 1437 1435 1433 1432 1430 1428 1426 1424 1419 1416 1414 1412 1409 1406 1403 1400 1398 1395 1393 1391 1388 1387 1385 1383 1382 1381 1381 1380 1379 1379 1379 1380 1381 1382 1383
1436 1434 1432 1431 1429 1427 1425 1423 1422 1420 1417 1414 1410 1408 1405 1403 1400 1396 1394 1391 1388 1386 1383 1381 1379 1377 1375 1374 1374 1373 1372 1372 1371 1371 1371 1372 1374 1375
1430 1428 1426 1424 1422 1420 1418 1416 1415 1413 1410 1407 1404 1401 1399 1396 1394 1390 1387 1384 1382 1379 1377 1374 1372 1370 1368 1367 1366 1365 1365 1364 1364 1364 1363 1365 1366 1368
1424 1422 1420 1418 1416 1414 1412 1410 1409 1406 1404 1401 1398 1395 1392 1390 1388 1385 1382 1378 1375 1373 1370 1367 1365 1363 1361 1360 1359 1358 1357 1357 1356 1356 1356 1357 1359 1360
1418 1416 1414 1412 1409 1407 1406 1404 1403 1400 1398 1396 1393 1390 1387 1385 1383 1380 1377 1374 1369 1368 1365 1361 1360 1357 1355 1354 1352 1351 1351 1350 1349 1349 1350 1350 1351 1352
1412 1410 1407 1405 1403 1401 1399 1397 1396 1394 1393 1391 1387 1384 1382 1380 1377 1374 1372 1369 1365 1362 1360 1355 1354 1351 1350 1348 1346 1345 1345 1344 1343 1343 1343 1343 1344 1345
1406 1404 1402 1399 1397 1395 1393 1391 1389 1387 1386 1384 1381 1378 1376 1374 1372 1369 1367 1363 1360 1358 1356 1351 1348 1346 1344 1342 1341 1340 1339 1338 1337 1337 1337 1337 1338 1339
1401 1399 1397 1394 1392 1390 1388 1385 1383 1381 1380 1378 1375 1372 1370 1368 1366 1364 1361 1359 1354 1351 1351 1348 1344 1341 1338 1336 1335 1334 1333 1332 1332 1331 1331 1331 1331 1332
1396 1394 1391 1389 1387 1385 1383 1380 1377 1375 1373 1370 1368 1366 1364 1362 1360 1358 1356 1353 1350 1347 1345 1344 1340 1338 1334 1332 1331 1330 1328 1327 1326 1325 1325 1325 1326 1327
1391 1389 1386 1384 1382 1380 1378 1375 1372 1370 1367 1365 1362 1360 1358 1356 1354 1352 1350 1348 1346 1343 1342 1340 1337 1335 1334 1329 1327 1326 1324 1323 1321 1320 1320 1320 1320 1321
1387 1384 1382 1379 1377 1374 1372 1369 1367 1365 1362 1360 1357 1354 1352 1350 1348 1346 1344 1343 1341 1339 1337 1336 1334 1332 1330 1327 1324 1322 1321 1319 1318 1316 1315 1315 1315 1315
1383 1380 1377 1374 1372 1369 1366 1364 1362 1359 1357 1355 1352 1350 1347 1345 1343 1340 1339 1337 1335 1334 1332 1331 1330 1328 1326 1324 1321 1319 1317 1315 1314 1313 1312 1311 1311 1310
1378 1375 1373 1370 1367 1364 1362 1359 1357 1355 1352 1350 1348 1345 1343 1340 1338 1336 1334 1332 1330 1328 1328 1327 1325 1324 1322 1320 1318 1316 1315 1314 1312 1311 1310 1308 1308 1307
1374 1371 1368 1365 1362 1360 1357 1355 1353 1351 1349 1346 1344 1341 1339 1337 1335 1333 1331 1329 1327 1325 1323 1322 1321 1320 1319 1317 1315 1314 1313 1312 1311 1309 1308 1306 1306 1306
1370 1367 1364 1361 1359 1356 1354 1351 1349 1347 1345 1343 1340 1338 1336 1334 1331 1330 1328 1326 1324 1322 1321 1319 1318 1316 1315 1315 1315 1312 1311 1310 1309 1308 1307 1306 1305 1305
1367 1364 1361 1358 1356 1353 1351 1348 1346 1344 1342 1340 1337 1335 1333 1331 1329 1327 1325 1323 1321 1320 1319 1318 1316 1315 1314 1313 1313 1313 1311 1309 1309 1308 1307 1306 1305 1304
1364 1361 1359 1356 1353 1351 1348 1346 1344 1341 1339 1337 1335 1333 1331 1329 1327 1325 1323 1321 1320 1318 1317 1316 1315 1314 1313 1313 1312 1312 1312 1310 1309 1307 1307 1306 1305 1304
1361 1359 1356 1354 1351 1348 1346 1343 1341 1339 1337 1335 1332 1331 1329 1327 1325 1323 1321 1320 1318 1317 1315 1314 1314 1313 1313 1312 1312 1311 1311 1311 1310 1308 1307 1306 1304 1303
1359 1356 1354 1351 1349 1346 1343 1341 1339 1337 1335 1332 1330 1328 1327 1325 1323 1322 1320 1318 1317 1316 1314 1314 1314 1313 1313 1312 1311 1311 1311 1310 1310 1309 1308 1307 1306 1304
1356 1354 1351 1349 1346 1344 1342 1339 1337 1335 1333 1331 1329 1327 1325 1323 1322 1320 1319 1318 1316 1315 1314 1313 1313 1313 1313 1313 1312 1312 1311 1310 1309 1308 1308 1307 1306 1305